Location: Mapua
(41.2500°S, 173.1000°E)
Time: 13:59:25
(UTC+12:00)

Envisat - Visible Passes

Search period start: 25 June 2017 00:00
Search period end: 05 July 2017 00:00
Orbit: 764 x 766 km, 98.2° (Epoch: 24 June)

Date Brightness Start Highest point End Pass type
(mag) Time Alt. Az. Time Alt. Az. Time Alt. Az.
25 Jun 5.3 07:16:55 10° ENE 07:20:47 22° ESE 07:24:40 10° SSE visible
26 Jun 5.9 06:43:38 10° ESE 06:44:35 10° ESE 06:45:32 10° SE visible
28 Jun 5.5 07:06:27 10° ENE 07:09:50 18° ESE 07:13:12 10° SSE visible
01 Jul 5.6 06:56:11 10° E 06:58:53 14° ESE 07:01:36 10° SSE visible
03 Jul 5.2 07:20:09 10° ENE 07:24:11 24° ESE 07:28:15 10° SSE visible
04 Jul 5.8 06:46:18 10° ESE 06:47:58 12° ESE 06:49:39 10° SE visible
